[[{"header":{"parameterUnit":"m.s-1","parameterCategory":1,"la1":30.2991,"la2":30.254,"lo1":-89.0895,"lo2":-89.0444,"dy":0.0017,"dx":0.0017,"nx":28,"ny":28,"refTime":"2024-02-21T09:00:00:Z","depth":0,"parameterNumber":2,"parameterNumberName":"U-component_of_WINDS"},"data":[0,0,0,0,0,0,0,0,0,0,0,0,0,0,0,0,0,0,0,0,0,0,0,0,0,0,0,0,0,0,0,0,0,0,0,0,0,0,0,0,0,0,0,0,0,0,0,0,0,0,0,0,0,0,0,0,0,0,-0.1695,-0.1694,0,-0.1617,-0.1616,-0.1615,-0.1634,-0.1636,-0.1637,-0.1639,-0.1553,-0.1549,-0.1546,0,0,0,0,0,0,0,0,0,0,0,0,0,-0.1856,-0.1853,-0.1695,-0.1694,-0.1693,-0.1617,-0.1616,-0.1615,-0.1634,-0.1636,-0.1638,-0.1639,-0.1554,-0.155,-0.1545,0,0,0,0,0,0,0,0,0,0,0,0,0,-0.1783,-0.1852,-0.1695,-0.1694,-0.1693,-0.1617,-0.1616,-0.1614,-0.1634,-0.1636,-0.1638,-0.164,-0.1556,-0.155,-0.1545,-0.1464,0,0,-0.1528,-0.1525,0,0,0,0,0,0,0,0,-0.1787,-0.1777,-0.1695,-0.1694,-0.1693,-0.1638,-0.1641,-0.1564,-0.1633,-0.1656,-0.1639,-0.1641,-0.1579,-0.1572,-0.1552,-0.146,-0.1456,-0.1527,-0.1524,-0.1521,-0.152,0,0,0,0,0,0,0,-0.1792,-0.178,-0.1664,-0.1694,-0.1692,-0.1695,-0.1687,-0.1627,-0.1605,-0.1654,-0.1655,-0.1646,-0.1579,-0.1557,-0.155,-0.1455,-0.1527,-0.1522,-0.1519,-0.1517,-0.1291,-0.1289,0,0,0,0,0,0,-0.1799,-0.1784,-0.1666,-0.1662,-0.1747,-0.169,-0.1682,-0.1653,-0.1606,-0.1601,-0.1644,-0.1647,-0.1565,-0.1556,-0.1547,-0.1448,-0.1521,-0.1516,-0.1513,-0.1294,-0.1291,-0.1288,0,0,0,0,0,0,-0.1802,-0.1788,-0.167,-0.1723,-0.1709,-0.1685,-0.1653,-0.165,-0.1629,-0.1599,-0.1594,-0.1626,-0.1567,-0.1555,-0.1484,-0.1445,-0.1514,-0.1509,-0.1297,-0.1293,-0.1289,-0.125,0,0,0,0,0,0,-0.1807,-0.1789,-0.176,-0.1723,-0.1706,-0.161,-0.165,-0.1647,-0.1619,-0.1623,-0.1581,-0.1576,-0.1568,-0.1493,-0.1479,-0.1439,-0.1504,-0.13,-0.1295,-0.129,-0.1255,-0.1245,-0.1237,0,0,0,0,0,-0.1812,-0.1751,-0.1758,-0.1744,-0.1668,-0.1608,-0.1598,-0.1592,-0.1616,-0.1585,-0.1566,-0.1577,-0.1452,-0.1485,-0.147,-0.1428,-0.1303,-0.1297,-0.1291,-0.1259,-0.1247,-0.1238,0,0,0,0,0,0,-0.1782,-0.1746,-0.1754,-0.1679,-0.1646,-0.1611,-0.1572,-0.158,-0.1538,-0.1543,-0.1535,-0.1525,-0.1453,-0.1434,-0.1471,-0.1346,-0.1381,-0.1371,-0.1362,-0.135,-0.1342,-0.1347,-0.15,0,0,0,0,0,-0.1767,-0.1723,-0.1693,-0.163,-0.1613,-0.1596,-0.1569,-0.1567,-0.1532,-0.1518,-0.1494,-0.1458,-0.1411,-0.138,-0.1335,-0.1253,-0.1242,-0.1216,-0.1207,-0.12,-0.1191,-0.1145,-0.1132,-0.1268,-0.1268,-0.1268,0,0,-0.1735,-0.171,-0.1682,-0.1623,-0.1598,-0.155,-0.1584,-0.1532,-0.1496,-0.151,-0.1442,-0.1423,-0.1383,-0.1306,-0.1271,-0.1287,-0.1152,-0.1192,-0.1187,-0.1182,-0.1137,-0.1124,-0.1113,-0.1264,-0.1265,-0.1266,0,0,-0.1652,-0.163,-0.1574,-0.1548,-0.151,-0.1498,-0.1485,-0.1448,-0.1437,-0.1369,-0.1378,-0.1334,-0.1253,-0.1223,-0.1198,-0.1103,-0.1111,-0.1088,-0.1042,-0.0997,-0.0986,-0.0976,-0.0941,-0.0928,-0.108,-0.108,-0.108,0,-0.1617,-0.1547,-0.1544,-0.1491,-0.1464,-0.1476,-0.1418,-0.1393,-0.1341,-0.1321,-0.1341,-0.1239,-0.1212,-0.1128,-0.1105,-0.1084,-0.1067,-0.1093,-0.0988,-0.0978,-0.0969,-0.0935,-0.0922,-0.1078,-0.1078,-0.1078,-0.1078,0,-0.1504,-0.1456,-0.1415,-0.1366,-0.1335,-0.128,-0.1266,-0.1234,-0.1234,-0.122,-0.115,-0.1119,-0.1067,-0.1047,-0.1047,-0.0962,-0.0973,-0.0991,-0.1025,-0.0954,-0.0921,-0.0909,-0.1074,-0.1075,-0.1076,-0.1076,0,0,-0.14,-0.135,-0.1335,-0.1312,-0.1271,-0.1232,-0.1177,-0.1128,-0.11,-0.1063,-0.1015,-0.0947,-0.0962,-0.0933,-0.0929,-0.0889,-0.0814,-0.0911,-0.091,-0.0893,-0.0717,-0.0703,-0.0688,-0.082,-0.0817,-0.0815,-0.072,0,-0.1312,-0.1217,-0.1212,-0.1124,-0.1078,-0.1088,-0.104,-0.1008,-0.0993,-0.095,-0.0933,-0.0883,-0.0909,-0.0891,-0.0852,-0.0832,-0.0778,-0.0839,-0.0773,-0.077,-0.0781,-0.0672,-0.0657,-0.0568,-0.0707,-0.0705,-0.0703,0,-0.1197,-0.1159,-0.1067,-0.1031,-0.1011,-0.0968,-0.0922,-0.0882,-0.0845,-0.0837,-0.0804,-0.0806,-0.0747,-0.0784,-0.0701,-0.0742,-0.0715,-0.0701,-0.0697,-0.0689,-0.0732,-0.0659,-0.054,-0.0526,-0.0684,-0.0685,-0.0687,0,-0.1128,-0.1053,-0.0988,-0.0969,-0.0926,-0.0895,-0.0875,-0.0841,-0.0811,-0.077,-0.0751,-0.0703,-0.0676,-0.0638,-0.0626,-0.0655,-0.0543,-0.058,-0.0532,-0.0533,-0.0507,-0.0509,-0.038,-0.0492,-0.0492,-0.0493,-0.0493,0,-0.103,-0.0973,-0.0957,-0.0917,-0.0852,-0.0846,-0.0782,-0.0764,-0.0733,-0.0688,-0.0694,-0.0651,-0.0639,-0.0593,-0.0583,-0.0515,-0.0503,-0.0493,-0.049,-0.0491,-0.0492,-0.0472,-0.0478,-0.0489,-0.049,-0.0491,-0.0491,0,-0.0942,-0.0929,-0.0859,-0.0824,-0.0814,-0.0768,-0.0737,-0.0697,-0.0683,-0.0626,-0.0612,-0.0589,-0.0536,-0.052,-0.0455,-0.0448,-0.0368,-0.0372,-0.0381,-0.038,-0.0333,-0.0337,-0.0186,-0.0165,-0.0292,-0.0291,-0.029,0,-0.0879,-0.0836,-0.0797,-0.0768,-0.0747,-0.07,-0.067,-0.0662,-0.063,-0.0585,-0.055,-0.0498,-0.0455,-0.0368,-0.0345,-0.0295,-0.0296,-0.0247,-0.0289,-0.0291,-0.0293,-0.0296,-0.029,-0.0238,-0.0237,-0.0236,-0.0235,0,-0.0769,-0.0765,-0.0723,-0.0677,-0.0642,-0.0606,-0.0571,-0.0546,-0.0533,-0.0496,-0.0442,-0.0409,-0.0344,-0.029,-0.024,-0.0217,-0.0222,-0.0222,-0.0208,-0.0208,-0.0214,-0.0209,-0.0358,-0.0226,-0.0226,-0.0227,-0.0228,-0.0228,-0.0691,-0.0652,-0.0619,-0.0571,-0.0544,-0.0511,-0.0471,-0.0453,-0.0408,-0.0355,-0.0353,-0.0294,-0.0256,-0.0189,-0.0164,-0.0116,-0.013,-0.011,-0.0105,-0.01,-0.0095,-0.0223,-0.0107,-0.0107,-0.0107,-0.0107,-0.0107,0,-0.058,-0.0559,-0.0515,-0.0466,-0.0428,-0.0439,-0.0401,-0.0367,-0.0316,-0.0281,-0.024,-0.0177,-0.0125,-0.0097,-0.0045,-0.0012,-0.0013,0.0001,-0.0,0.0006,-0.0086,-0.0103,0.0002,0.0002,0.0002,0.0002,0.0001,0.0001,-0.0518,-0.0453,-0.0444,-0.0365,-0.0343,-0.0287,-0.0264,-0.0232,-0.0205,-0.0135,-0.0093,-0.0076,-0.0043,0.0011,0.0059,0.0066,0.0086,0.0103,0.0109,0.0023,0.0012,0.0001,-0.0014,0.0107,0.0107,0.0197,0.0198,0.0198]},{"header":{"parameterUnit":"m.s-1","parameterCategory":1,"la1":30.2991,"la2":30.254,"lo1":-89.0895,"lo2":-89.0444,"dy":0.0017,"dx":0.0017,"nx":28,"ny":28,"refTime":"2024-02-21T09:00:00:Z","depth":0,"parameterNumber":3,"parameterNumberName":"V-component_of_WINDS"},"data":[0,0,0,0,0,0,0,0,0,0,0,0,0,0,0,0,0,0,0,0,0,0,0,0,0,0,0,0,0,0,0,0,0,0,0,0,0,0,0,0,0,0,0,0,0,0,0,0,0,0,0,0,0,0,0,0,0,0,1.3221,1.322,0,1.3189,1.3189,1.3189,1.3112,1.311,1.3109,1.3107,1.3078,1.3079,1.3079,0,0,0,0,0,0,0,0,0,0,0,0,0,1.3216,1.3216,1.3221,1.322,1.322,1.319,1.3189,1.3189,1.3112,1.311,1.3108,1.3106,1.3078,1.3078,1.3079,0,0,0,0,0,0,0,0,0,0,0,0,0,1.3205,1.3217,1.3221,1.3178,1.3174,1.319,1.3189,1.3189,1.3113,1.311,1.3108,1.3106,1.3077,1.3078,1.3079,1.3135,0,0,1.3083,1.3083,0,0,0,0,0,0,0,0,1.3206,1.3205,1.3185,1.3181,1.3176,1.3152,1.3177,1.3171,1.3113,1.3136,1.3107,1.3104,1.3105,1.3103,1.3103,1.3134,1.3132,1.3083,1.3084,1.3084,1.3084,0,0,0,0,0,0,0,1.3206,1.3206,1.3208,1.3184,1.3179,1.3161,1.3157,1.3175,1.3134,1.3134,1.3128,1.3125,1.3102,1.3102,1.3102,1.3132,1.3083,1.3084,1.3085,1.3085,1.3207,1.3209,0,0,0,0,0,0,1.3213,1.3207,1.3209,1.3207,1.3185,1.3163,1.3158,1.3162,1.3134,1.3127,1.3128,1.3122,1.3101,1.3101,1.31,1.3164,1.3084,1.3085,1.3086,1.3204,1.3207,1.321,0,0,0,0,0,0,1.3213,1.3214,1.3211,1.3206,1.3204,1.3166,1.3171,1.3163,1.3163,1.3129,1.3122,1.3135,1.3099,1.3099,1.3127,1.3162,1.3086,1.3087,1.3201,1.3205,1.3209,1.3291,0,0,0,0,0,0,1.3213,1.3215,1.3235,1.3207,1.3204,1.3237,1.3173,1.3164,1.3165,1.3157,1.3134,1.3128,1.3097,1.3126,1.3128,1.3162,1.3087,1.3198,1.3203,1.3207,1.3285,1.3297,1.3307,0,0,0,0,0,1.3214,1.326,1.3236,1.3237,1.3229,1.3239,1.3238,1.3201,1.3168,1.3188,1.3167,1.3129,1.3157,1.3129,1.3131,1.3166,1.3195,1.3201,1.3207,1.328,1.3295,1.3307,0,0,0,0,0,0,1.3294,1.3255,1.3229,1.3267,1.3257,1.3226,1.3251,1.3218,1.3218,1.3211,1.3166,1.3161,1.3196,1.3183,1.3152,1.3218,1.317,1.3177,1.3225,1.3239,1.325,1.3252,1.3088,0,0,0,0,0,1.3316,1.3326,1.3292,1.333,1.3326,1.3289,1.3293,1.3265,1.3253,1.3249,1.3229,1.322,1.3226,1.3232,1.3236,1.3282,1.3277,1.3307,1.3319,1.3328,1.3334,1.3359,1.3372,1.3229,1.3229,1.3229,0,0,1.3361,1.3342,1.3351,1.3345,1.3334,1.3347,1.3286,1.3303,1.3312,1.3251,1.3276,1.3262,1.3248,1.3286,1.3301,1.3277,1.3373,1.3335,1.3343,1.3344,1.3366,1.338,1.3392,1.3233,1.3232,1.3232,0,0,1.3451,1.3437,1.3467,1.3457,1.344,1.3416,1.3423,1.3397,1.3385,1.3409,1.3364,1.3375,1.3387,1.3379,1.3377,1.3465,1.343,1.3467,1.3527,1.3551,1.3562,1.3572,1.3603,1.3615,1.3473,1.3474,1.3474,0,1.3511,1.3528,1.3486,1.3505,1.3504,1.3449,1.3478,1.3471,1.3458,1.3459,1.3431,1.3445,1.3432,1.3467,1.3489,1.3488,1.3496,1.347,1.3563,1.3573,1.3581,1.3611,1.3623,1.3478,1.3478,1.3477,1.3477,0,1.3601,1.3614,1.364,1.3627,1.3629,1.3654,1.3617,1.3623,1.3596,1.3574,1.36,1.3582,1.3582,1.3589,1.3562,1.362,1.3606,1.3571,1.3523,1.36,1.3628,1.3639,1.3485,1.3483,1.3482,1.3481,0,0,1.3742,1.3705,1.3716,1.3709,1.3687,1.3697,1.3719,1.3718,1.3725,1.3718,1.3736,1.3747,1.3715,1.3713,1.3685,1.3706,1.3777,1.3669,1.3668,1.3691,1.3841,1.3868,1.3882,1.3754,1.3756,1.3757,1.3843,0,1.3827,1.3862,1.3825,1.3868,1.388,1.3827,1.3847,1.3836,1.3817,1.3824,1.3803,1.3812,1.3769,1.3767,1.3786,1.3765,1.3807,1.3758,1.3771,1.3772,1.3777,1.3896,1.3923,1.4005,1.3853,1.3855,1.3856,0,1.3931,1.3927,1.3972,1.3947,1.395,1.3968,1.3964,1.3972,1.3959,1.3943,1.3941,1.3907,1.3927,1.388,1.3908,1.3876,1.3879,1.387,1.3872,1.3872,1.382,1.39,1.403,1.4042,1.3872,1.3871,1.387,0,1.4029,1.4036,1.4063,1.4059,1.4031,1.4045,1.4034,1.4018,1.402,1.4017,1.4018,1.4018,1.4018,1.4019,1.3986,1.3954,1.4019,1.3968,1.4008,1.4009,1.4025,1.4024,1.4158,1.4026,1.4026,1.4026,1.4025,0,1.4129,1.4158,1.4107,1.4124,1.4155,1.4113,1.4146,1.4129,1.4116,1.4129,1.4084,1.4097,1.4053,1.4062,1.4036,1.4064,1.4065,1.4054,1.4047,1.4058,1.406,1.406,1.4054,1.4029,1.4028,1.4027,1.4027,0,1.4244,1.4211,1.4238,1.4208,1.4201,1.4226,1.4201,1.4216,1.4193,1.4211,1.4213,1.4178,1.4187,1.4154,1.4157,1.414,1.4182,1.4165,1.4186,1.4181,1.4223,1.422,1.4362,1.4378,1.4236,1.4237,1.4238,0,1.431,1.4331,1.4304,1.4309,1.43,1.431,1.4311,1.427,1.4274,1.426,1.4277,1.4282,1.4283,1.43,1.4275,1.4278,1.4261,1.4311,1.4261,1.4273,1.4263,1.4262,1.4265,1.4322,1.4323,1.4325,1.4326,0,1.4431,1.4413,1.4417,1.4415,1.4417,1.4414,1.4408,1.4415,1.4371,1.4378,1.4385,1.4386,1.4389,1.4395,1.4392,1.4382,1.4347,1.4341,1.4351,1.4363,1.4375,1.437,1.4215,1.4339,1.4337,1.4336,1.4336,1.4335,1.4524,1.4541,1.4524,1.4529,1.452,1.4515,1.4527,1.4506,1.4512,1.451,1.4486,1.4499,1.4486,1.4478,1.4471,1.4481,1.4458,1.4471,1.4475,1.4479,1.4487,1.4373,1.448,1.448,1.4479,1.4479,1.4479,0,1.4643,1.4629,1.4635,1.4627,1.4631,1.4597,1.4588,1.4595,1.4606,1.4596,1.4598,1.4608,1.4613,1.4589,1.4591,1.4603,1.4588,1.4605,1.4605,1.4603,1.4507,1.4499,1.4618,1.4618,1.4618,1.4618,1.4618,1.4618,1.4705,1.4731,1.4712,1.4733,1.472,1.4731,1.4729,1.4725,1.4716,1.4729,1.4732,1.4716,1.4701,1.4701,1.4705,1.4698,1.4701,1.4724,1.4712,1.4623,1.461,1.4597,1.4589,1.4725,1.4725,1.4807,1.4808,1.4809]}]]